User: anonymous   Login
Location: Ahausen
(50.4985°N, 8.2722°E)
Time: 10:29:15
(UTC+00:00)
Language:

DUCHIFAT 1 - Orbit

View from above orbital plane
View from above orbital plane
View from above satellite
View from above satellite

Ground track
Ground track

The orbit data is extracted from the following two-line orbital elements,

1 40021U 14033M   22180.80676651  .00002017  00000-0  19991-3 0  9992
2 40021  98.0131 131.2321 0012712   8.1838 351.9585 14.92937222436544
Epoch (UTC): 29 June 2022 19:21:44
Eccentricity: 0.0012712
inclination: 98.0131°
perigee height: 580 km
apogee height: 597 km
right ascension of ascending node: 131.2321°
argument of perigee: 8.1838°
revolutions per day: 14.92937222
mean anomaly at epoch: 351.9585°
orbit number at epoch: 43654

The dashed part of the orbit path shows where the satellite is in the earth's shadow,  

DLR